Location: Bartlow
(52.0833°N, 0.3167°E)
Time: 03:48:07
(UTC+00:00)

Cosmos 1933 - Pass Details

Date: 26 September 2023
Orbit: 536 x 548 km, 82.5° (Epoch: 29 November)

Event Time Altitude Azimuth Distance (km) Brightness Sun altitude
Exits shadow 03:23:08 56° 151° (SSE) 646 3.5 -22.5°
Maximum altitude 03:23:46 69° 98° (E) 583 3.5 -22.5°
Drops below altitude 10° 03:27:44 10° 15° (NNE) 1,813 6.5 -21.9°
Sets 03:29:55 0° 13° (NNE) 2,712 7.5 -21.6°
